| time (UTC) | temp F | wind direction | speed MPH | gust MPH | rain 1hr in | rain 24hr in | rain mn in | humidity % | barometer mb |
| 20260505065310 | 55 | 270 | 0.0 | 2.0 | 0.00 | 0.00 | 0.00 | 92 | 1010.7 |
| 20260505064807 | 55 | 126 | 0.0 | 2.0 | 0.00 | 0.00 | 0.00 | 91 | 1010.8 |
| 20260505064304 | 56 | 194 | 0.0 | 3.0 | 0.00 | 0.00 | 0.00 | 91 | 1010.7 |
| 20260505063802 | 56 | 131 | 0.0 | 2.0 | 0.00 | 0.00 | 0.00 | 91 | 1010.6 |
| 20260505063258 | 56 | 186 | 0.0 | 3.0 | 0.00 | 0.00 | 0.00 | 91 | 1010.8 |
| 20260505062754 | 56 | 196 | 3.0 | 4.0 | 0.00 | 0.00 | 0.00 | 90 | 1010.7 |
| 20260505062252 | 56 | 197 | 2.0 | 2.0 | 0.00 | 0.00 | 0.00 | 90 | 1010.8 |
| 20260505061749 | 56 | 185 | 0.0 | 3.0 | 0.00 | 0.00 | 0.00 | 90 | 1010.9 |
| 20260505061247 | 56 | 159 | 2.0 | 3.0 | 0.00 | 0.00 | 0.00 | 90 | 1010.8 |
| 20260505060744 | 56 | 270 | 0.0 | 2.0 | 0.00 | 0.00 | 0.00 | 90 | 1010.8 |
| 20260505060241 | 57 | 203 | 0.0 | 3.0 | 0.00 | 0.00 | 0.00 | 89 | 1010.6 |
| 20260505055736 | 57 | 165 | 0.0 | 3.0 | 0.00 | 0.00 | 0.00 | 89 | 1010.7 |
| 20260505055232 | 57 | 213 | 0.0 | 4.0 | 0.00 | 0.00 | 0.00 | 89 | 1010.8 |
| 20260505054730 | 57 | 254 | 2.0 | 4.0 | 0.00 | 0.00 | 0.00 | 90 | 1011.0 |
| 20260505054228 | 56 | 187 | 0.0 | 3.0 | 0.00 | 0.00 | 0.00 | 90 | 1010.9 |
| 20260505053726 | 56 | 215 | 1.0 | 2.0 | 0.00 | 0.00 | 0.00 | 90 | 1010.9 |
| 20260505053222 | 56 | 213 | 0.0 | 4.0 | 0.00 | 0.00 | 0.00 | 90 | 1010.9 |
| 20260505052719 | 56 | 166 | 1.0 | 2.0 | 0.00 | 0.00 | 0.00 | 91 | 1011.1 |
| 20260505052216 | 56 | 165 | 0.0 | 2.0 | 0.00 | 0.00 | 0.00 | 91 | 1011.0 |
| 20260505051713 | 55 | 206 | 0.0 | 2.0 | 0.00 | 0.00 | 0.00 | 91 | 1010.9 |
| 20260505051211 | 56 | 185 | 0.0 | 5.0 | 0.00 | 0.00 | 0.00 | 92 | 1011.1 |
| 20260505050709 | 55 | 270 | 0.0 | 1.0 | 0.00 | 0.00 | 0.00 | 91 | 1011.2 |
| 20260505050207 | 55 | 203 | 0.0 | 3.0 | 0.00 | 0.00 | 0.00 | 91 | 1011.3 |
| 20260505041637 | 56 | 111 | 0.0 | 2.0 | 0.00 | 0.00 | 0.00 | 88 | 1011.3 |
| 20260505041134 | 56 | 188 | 0.0 | 1.0 | 0.00 | 0.00 | 0.00 | 87 | 1011.2 |
| 20260505040631 | 56 | 180 | 2.0 | 2.0 | 0.00 | 0.00 | 0.00 | 87 | 1011.4 |
| 20260505040128 | 56 | 261 | 0.0 | 3.0 | 0.00 | 0.00 | 0.00 | 87 | 1011.2 |
| 20260505035624 | 56 | 203 | 0.0 | 2.0 | 0.00 | 0.00 | 0.00 | 86 | 1011.2 |
| 20260505035120 | 56 | 160 | 0.0 | 2.0 | 0.00 | 0.00 | 0.00 | 85 | 1011.1 |
| 20260505034617 | 57 | 198 | 1.0 | 3.0 | 0.00 | 0.00 | 0.00 | 85 | 1011.1 |
| 20260505034114 | 56 | 192 | 0.0 | 2.0 | 0.00 | 0.00 | 0.00 | 85 | 1011.1 |
| 20260505033611 | 56 | 249 | 1.0 | 2.0 | 0.00 | 0.00 | 0.00 | 84 | 1011.1 |
| 20260505033110 | 57 | 117 | 0.0 | 3.0 | 0.00 | 0.00 | 0.00 | 83 | 1011.0 |
| 20260505032607 | 57 | 180 | 0.0 | 2.0 | 0.00 | 0.00 | 0.00 | 82 | 1011.0 |
| 20260505032103 | 57 | 195 | 0.0 | 1.0 | 0.00 | 0.00 | 0.00 | 81 | 1011.2 |
| 20260505031601 | 57 | 180 | 0.0 | 2.0 | 0.00 | 0.00 | 0.00 | 81 | 1011.4 |
| 20260505031057 | 57 | 119 | 2.0 | 2.0 | 0.00 | 0.00 | 0.00 | 80 | 1011.4 |
| 20260505030554 | 57 | 240 | 0.0 | 3.0 | 0.00 | 0.00 | 0.00 | 80 | 1011.3 |
| 20260505030050 | 57 | 209 | 1.0 | 2.0 | 0.00 | 0.00 | 0.00 | 81 | 1011.2 |
| 20260505025545 | 57 | 187 | 0.0 | 1.0 | 0.00 | 0.00 | 0.00 | 79 | 1011.4 |
| 20260505025045 | 58 | 166 | 1.0 | 3.0 | 0.00 | 0.00 | 0.00 | 78 | 1011.4 |
| 20260505024541 | 58 | 200 | 0.0 | 1.0 | 0.00 | 0.00 | 0.00 | 78 | 1011.3 |
| 20260505024038 | 58 | 234 | 1.0 | 3.0 | 0.00 | 0.00 | 0.00 | 77 | 1011.5 |
| 20260505023535 | 58 | 139 | 0.0 | 2.0 | 0.00 | 0.00 | 0.00 | 78 | 1011.4 |
| 20260505023033 | 58 | 144 | 0.0 | 2.0 | 0.00 | 0.00 | 0.00 | 78 | 1011.4 |
| 20260505022530 | 58 | 203 | 2.0 | 3.0 | 0.00 | 0.00 | 0.00 | 77 | 1011.5 |
| 20260505022028 | 58 | 180 | 0.0 | 2.0 | 0.00 | 0.00 | 0.00 | 76 | 1011.4 |
| 20260505021524 | 59 | 128 | 2.0 | 2.0 | 0.00 | 0.00 | 0.00 | 76 | 1011.4 |
| 20260505021021 | 59 | 203 | 1.0 | 2.0 | 0.00 | 0.00 | 0.00 | 76 | 1011.7 |
| 20260505020520 | 59 | 120 | 0.0 | 3.0 | 0.00 | 0.00 | 0.00 | 76 | 1011.4 |
| 20260505015116 | 58 | 240 | 0.0 | 2.0 | 0.00 | 0.00 | 0.00 | 75 | 1011.3 |
| 20260505014613 | 58 | 240 | 0.0 | 2.0 | 0.00 | 0.00 | 0.00 | 75 | 1011.3 |
| 20260505014110 | 58 | 240 | 0.0 | 2.0 | 0.00 | 0.00 | 0.00 | 75 | 1011.3 |
| 20260505013607 | 58 | 198 | 1.0 | 2.0 | 0.00 | 0.00 | 0.00 | 76 | 1011.5 |
| 20260505013104 | 58 | 203 | 0.0 | 2.0 | 0.00 | 0.00 | 0.00 | 75 | 1011.4 |
| 20260505012602 | 58 | 195 | 0.0 | 2.0 | 0.00 | 0.00 | 0.00 | 75 | 1011.3 |
| 20260505012059 | 58 | 215 | 0.0 | 1.0 | 0.00 | 0.00 | 0.00 | 75 | 1011.3 |
| 20260505011554 | 59 | 251 | 0.0 | 1.0 | 0.00 | 0.00 | 0.00 | 74 | 1011.2 |
| 20260505011052 | 59 | 188 | 0.0 | 2.0 | 0.00 | 0.00 | 0.00 | 72 | 1011.2 |
| 20260505010547 | 60 | 194 | 0.0 | 2.0 | 0.00 | 0.00 | 0.00 | 71 | 1011.0 |
| 20260505010044 | 60 | 195 | 0.0 | 2.0 | 0.00 | 0.00 | 0.00 | 71 | 1010.9 |
| 20260505005540 | 60 | 186 | 0.0 | 2.0 | 0.00 | 0.00 | 0.00 | 70 | 1010.9 |
| 20260505005038 | 61 | 216 | 0.0 | 4.0 | 0.00 | 0.00 | 0.00 | 70 | 1011.0 |
| 20260505004535 | 61 | 180 | 0.0 | 3.0 | 0.00 | 0.00 | 0.00 | 69 | 1011.0 |
| 20260505004032 | 61 | 185 | 2.0 | 3.0 | 0.00 | 0.00 | 0.00 | 69 | 1011.0 |
| 20260505003529 | 61 | 241 | 3.0 | 4.0 | 0.00 | 0.00 | 0.00 | 71 | 1011.1 |
| 20260505003026 | 61 | 243 | 0.0 | 2.0 | 0.00 | 0.00 | 0.00 | 71 | 1011.1 |
| 20260505002521 | 61 | 172 | 0.0 | 2.0 | 0.00 | 0.00 | 0.00 | 71 | 1010.8 |
| 20260505002020 | 61 | 166 | 1.0 | 2.0 | 0.00 | 0.00 | 0.00 | 70 | 1010.9 |
| 20260505001517 | 61 | 188 | 0.0 | 2.0 | 0.00 | 0.00 | 0.00 | 71 | 1010.7 |
| 20260505001014 | 62 | 166 | 1.0 | 2.0 | 0.00 | 0.00 | 0.00 | 70 | 1010.8 |
| 20260505000512 | 62 | 180 | 0.0 | 2.0 | 0.00 | 0.00 | 0.00 | 70 | 1010.6 |
| 20260505000009 | 62 | 180 | 0.0 | 2.0 | 0.00 | 0.00 | 0.00 | 69 | 1010.7 |
| 20260504235505 | 62 | 220 | 0.0 | 4.0 | 0.00 | 0.00 | 0.00 | 69 | 1010.8 |
| 20260504235001 | 63 | 123 | 2.0 | 3.0 | 0.00 | 0.00 | 0.00 | 68 | 1010.8 |
| 20260504234453 | 64 | 195 | 0.0 | 4.0 | 0.00 | 0.00 | 0.00 | 66 | 1010.4 |
| 20260504233950 | 64 | 195 | 0.0 | 4.0 | 0.00 | 0.00 | 0.00 | 66 | 1010.4 |
| 20260504233445 | 64 | 195 | 0.0 | 4.0 | 0.00 | 0.00 | 0.00 | 66 | 1010.4 |
| 20260504232943 | 64 | 120 | 2.0 | 2.0 | 0.00 | 0.00 | 0.00 | 67 | 1010.4 |
| 20260504232440 | 65 | 155 | 3.0 | 4.0 | 0.00 | 0.00 | 0.00 | 65 | 1010.5 |
| 20260504231937 | 65 | 186 | 1.0 | 4.0 | 0.00 | 0.00 | 0.00 | 62 | 1010.5 |
| 20260504231433 | 66 | 194 | 1.0 | 8.0 | 0.00 | 0.00 | 0.00 | 61 | 1010.4 |
| 20260504230929 | 66 | 159 | 2.0 | 7.0 | 0.00 | 0.00 | 0.00 | 60 | 1010.3 |
| 20260504230426 | 66 | 157 | 2.0 | 3.0 | 0.00 | 0.00 | 0.00 | 58 | 1010.3 |
| 20260504225926 | 67 | 215 | 3.0 | 3.0 | 0.00 | 0.00 | 0.00 | 58 | 1010.4 |
| 20260504225422 | 67 | 173 | 5.0 | 5.0 | 0.00 | 0.00 | 0.00 | 57 | 1010.4 |
| 20260504224919 | 67 | 145 | 1.0 | 2.0 | 0.00 | 0.00 | 0.00 | 57 | 1010.5 |
| 20260504224416 | 67 | 159 | 3.0 | 4.0 | 0.00 | 0.00 | 0.00 | 56 | 1010.1 |
| 20260504223913 | 68 | 180 | 1.0 | 3.0 | 0.00 | 0.00 | 0.00 | 56 | 1010.3 |
| 20260504223408 | 68 | 186 | 5.0 | 7.0 | 0.00 | 0.00 | 0.00 | 54 | 1010.2 |
| 20260504222904 | 68 | 180 | 0.0 | 4.0 | 0.00 | 0.00 | 0.00 | 53 | 1010.4 |
| 20260504222402 | 69 | 142 | 5.0 | 5.0 | 0.00 | 0.00 | 0.00 | 51 | 1010.3 |
| 20260504221900 | 69 | 217 | 3.0 | 6.0 | 0.00 | 0.00 | 0.00 | 49 | 1010.3 |
| 20260504221356 | 69 | 143 | 3.0 | 5.0 | 0.00 | 0.00 | 0.00 | 50 | 1010.4 |
| 20260504220854 | 69 | 180 | 0.0 | 4.0 | 0.00 | 0.00 | 0.00 | 51 | 1010.2 |
| 20260504220350 | 69 | 180 | 0.0 | 5.0 | 0.00 | 0.00 | 0.00 | 50 | 1010.3 |
| 20260504215847 | 69 | 143 | 3.0 | 6.0 | 0.00 | 0.00 | 0.00 | 49 | 1010.2 |
| 20260504215344 | 69 | 203 | 2.0 | 3.0 | 0.00 | 0.00 | 0.00 | 49 | 1010.3 |
| 20260504214840 | 69 | 213 | 2.0 | 5.0 | 0.00 | 0.00 | 0.00 | 49 | 1010.2 |
| 20260504214337 | 69 | 228 | 4.0 | 4.0 | 0.00 | 0.00 | 0.00 | 48 | 1010.2 |
| 20260504213834 | 69 | 208 | 3.0 | 6.0 | 0.00 | 0.00 | 0.00 | 48 | 1010.1 |
| 20260504213329 | 69 | 239 | 7.0 | 10.0 | 0.00 | 0.00 | 0.00 | 47 | 1010.2 |
| 20260504212827 | 69 | 218 | 5.0 | 9.0 | 0.00 | 0.00 | 0.00 | 47 | 1010.2 |
| 20260504212323 | 70 | 151 | 3.0 | 6.0 | 0.00 | 0.00 | 0.00 | 47 | 1010.2 |
| 20260504211821 | 70 | 192 | 2.0 | 11.0 | 0.00 | 0.00 | 0.00 | 48 | 1010.2 |
| 20260504211317 | 71 | 172 | 2.0 | 6.0 | 0.00 | 0.00 | 0.00 | 48 | 1010.3 |
| 20260504210814 | 71 | 180 | 0.0 | 11.0 | 0.00 | 0.00 | 0.00 | 47 | 1010.2 |
| 20260504210311 | 72 | 175 | 5.0 | 9.0 | 0.00 | 0.00 | 0.00 | 44 | 1010.2 |
| 20260504205809 | 73 | 186 | 6.0 | 6.0 | 0.00 | 0.00 | 0.00 | 34 | 1010.1 |
| 20260504205306 | 73 | 250 | 3.0 | 5.0 | 0.00 | 0.00 | 0.00 | 43 | 1010.1 |
| 20260504204804 | 73 | 229 | 4.0 | 4.0 | 0.00 | 0.00 | 0.00 | 44 | 1010.2 |
| 20260504204302 | 73 | 254 | 2.0 | 7.0 | 0.00 | 0.00 | 0.00 | 33 | 1010.3 |
| 20260504203801 | 73 | 237 | 3.0 | 10.0 | 0.00 | 0.00 | 0.00 | 34 | 1010.1 |
| 20260504203258 | 74 | 185 | 3.0 | 7.0 | 0.00 | 0.00 | 0.00 | 33 | 1010.3 |
| 20260504202752 | 74 | 270 | 3.0 | 7.0 | 0.00 | 0.00 | 0.00 | 32 | 1010.2 |
| 20260504202250 | 74 | 270 | 3.0 | 7.0 | 0.00 | 0.00 | 0.00 | 32 | 1010.2 |
| 20260504201747 | 74 | 232 | 5.0 | 9.0 | 0.00 | 0.00 | 0.00 | 33 | 1010.2 |
| 20260504201244 | 74 | 110 | 5.0 | 7.0 | 0.00 | 0.00 | 0.00 | 34 | 1010.1 |
| 20260504200742 | 74 | 218 | 5.0 | 7.0 | 0.00 | 0.00 | 0.00 | 33 | 1010.3 |
| 20260504200237 | 74 | 190 | 5.0 | 7.0 | 0.00 | 0.00 | 0.00 | 34 | 1010.4 |
| 20260504195734 | 75 | 148 | 3.0 | 6.0 | 0.00 | 0.00 | 0.00 | 37 | 1010.5 |
| 20260504195230 | 74 | 256 | 5.0 | 7.0 | 0.00 | 0.00 | 0.00 | 34 | 1010.6 |
| 20260504194728 | 73 | 157 | 3.0 | 7.0 | 0.00 | 0.00 | 0.00 | 33 | 1010.6 |
| 20260504194223 | 76 | 251 | 8.0 | 8.0 | 0.00 | 0.00 | 0.00 | 33 | 1010.5 |
| 20260504193720 | 75 | 264 | 5.0 | 6.0 | 0.00 | 0.00 | 0.00 | 35 | 1010.4 |
| 20260504193218 | 76 | 250 | 3.0 | 5.0 | 0.00 | 0.00 | 0.00 | 34 | 1010.4 |
| 20260504192716 | 75 | 222 | 3.0 | 5.0 | 0.00 | 0.00 | 0.00 | 35 | 1010.9 |
| 20260504192214 | 75 | 263 | 0.0 | 5.0 | 0.00 | 0.00 | 0.00 | 35 | 1010.9 |
| 20260504191712 | 74 | 249 | 4.0 | 7.0 | 0.00 | 0.00 | 0.00 | 34 | 1010.9 |
| 20260504191209 | 74 | 243 | 2.0 | 4.0 | 0.00 | 0.00 | 0.00 | 34 | 1010.6 |
| 20260504190704 | 74 | 188 | 5.0 | 9.0 | 0.00 | 0.00 | 0.00 | 35 | 1010.8 |
| 20260504190200 | 74 | 173 | 1.0 | 5.0 | 0.00 | 0.00 | 0.00 | 34 | 1011.0 |
| 20260504185657 | 75 | 190 | 3.0 | 8.0 | 0.00 | 0.00 | 0.00 | 36 | 1011.3 |
| 20260504185153 | 75 | 99 | 0.0 | 5.0 | 0.00 | 0.00 | 0.00 | 35 | 1010.9 |
| 20260504184650 | 75 | 248 | 3.0 | 6.0 | 0.00 | 0.00 | 0.00 | 35 | 1011.3 |
| 20260504184144 | 75 | 266 | 5.0 | 6.0 | 0.00 | 0.00 | 0.00 | 33 | 1011.2 |
| 20260504182521 | 75 | 277 | 3.0 | 6.0 | 0.00 | 0.00 | 0.00 | 34 | 1011.6 |
| 20260504182018 | 75 | 277 | 3.0 | 6.0 | 0.00 | 0.00 | 0.00 | 34 | 1011.6 |
| 20260504181515 | 75 | 239 | 2.0 | 5.0 | 0.00 | 0.00 | 0.00 | 36 | 1011.6 |
| 20260504180351 | 74 | 231 | 3.0 | 7.0 | 0.00 | 0.00 | 0.00 | 32 | 1011.8 |
| 20260504175849 | 74 | 231 | 3.0 | 7.0 | 0.00 | 0.00 | 0.00 | 32 | 1011.8 |
| 20260504175345 | 75 | 293 | 2.0 | 6.0 | 0.00 | 0.00 | 0.00 | 33 | 1012.0 |
| 20260504174844 | 74 | 323 | 2.0 | 4.0 | 0.00 | 0.00 | 0.00 | 34 | 1012.0 |
| 20260504174341 | 74 | 252 | 4.0 | 7.0 | 0.00 | 0.00 | 0.00 | 33 | 1012.0 |
| 20260504173838 | 73 | 281 | 3.0 | 6.0 | 0.00 | 0.00 | 0.00 | 35 | 1011.8 |
| 20260504173334 | 72 | 243 | 5.0 | 7.0 | 0.00 | 0.00 | 0.00 | 35 | 1012.2 |
| 20260504172831 | 74 | 309 | 3.0 | 7.0 | 0.00 | 0.00 | 0.00 | 36 | 1012.3 |
| 20260504172328 | 73 | 324 | 2.0 | 8.0 | 0.00 | 0.00 | 0.00 | 35 | 1012.2 |
| 20260504171824 | 72 | 248 | 3.0 | 8.0 | 0.00 | 0.00 | 0.00 | 34 | 1012.4 |
| 20260504171321 | 73 | 213 | 4.0 | 7.0 | 0.00 | 0.00 | 0.00 | 36 | 1012.4 |
| 20260504170818 | 73 | 262 | 5.0 | 7.0 | 0.00 | 0.00 | 0.00 | 37 | 1012.4 |
| 20260504170315 | 73 | 236 | 4.0 | 8.0 | 0.00 | 0.00 | 0.00 | 36 | 1012.5 |
| 20260504160233 | 71 | 255 | 2.0 | 4.0 | 0.00 | 0.00 | 0.00 | 39 | 1013.2 |
| 20260504150659 | 69 | 258 | 4.0 | 8.0 | 0.00 | 0.00 | 0.00 | 48 | 1013.7 |
| 20260504150155 | 69 | 216 | 2.0 | 4.0 | 0.00 | 0.00 | 0.00 | 49 | 1013.8 |
| 20260504141124 | 66 | 247 | 7.0 | 13.0 | 0.00 | 0.00 | 0.00 | 52 | 1014.0 |
| 20260504140621 | 66 | 244 | 3.0 | 7.0 | 0.00 | 0.00 | 0.00 | 52 | 1014.1 |
| 20260504140117 | 65 | 257 | 2.0 | 10.0 | 0.00 | 0.00 | 0.00 | 53 | 1014.3 |
| 20260504130545 | 63 | 173 | 5.0 | 6.0 | 0.00 | 0.00 | 0.00 | 56 | 1014.7 |
| 20260504110432 | 44 | 98 | 0.0 | 1.0 | 0.00 | 0.00 | 0.00 | 94 | 1015.7 |
| 20260504100349 | 38 | 203 | 0.0 | 1.0 | 0.00 | 0.00 | 0.00 | 96 | 1015.7 |
| 20260504081742 | 40 | 195 | 0.0 | 0.0 | 0.00 | 0.00 | 0.00 | 92 | 1015.6 |
| 20260504081239 | 39 | 195 | 0.0 | 0.0 | 0.00 | 0.00 | 0.00 | 91 | 1015.5 |
| 20260504080736 | 39 | 195 | 0.0 | 0.0 | 0.00 | 0.00 | 0.00 | 91 | 1015.4 |
| 20260504080232 | 39 | 195 | 0.0 | 0.0 | 0.00 | 0.00 | 0.00 | 90 | 1015.2 |
| 20260504070159 | 40 | 246 | 0.0 | 0.0 | 0.00 | 0.00 | 0.00 | 89 | 1015.1 |